Flag for Spain Weather past 2 weeks in Bilbao, Spain

Now
57 °F

Passing clouds.


Feels Like: 57 °F
Forecast: 48 / 53 °F
Wind: 2 mph from North

Location: Bilbao / Sondica

Current Time: Mar 2, 2015 at 2:01:17 AM

Latest Report: Mar 1, 2015 at 11:30 PM


Visibility: N/A

Pressure: 30.12 "Hg

Humidity: 100%

Dew point: 57 °F

Location of BilbaoLocation

Historic Weather in Bilbao — Graph

°F

Bilbao temperature yesterday

Maximum temperature yesterday: 68 °F (at 3:00 PM)
Minimum temperature yesterday: 54 °F (at 5:00 AM)
Average temperature yesterday: 60 °F

Past Weeks' High & Low Weather Summary

 TemperatureHumidityPressure
High68 °F (Mar 1, 3:00 PM)100% (Feb 15, 5:00 AM)30.72 "Hg (Feb 15, 5:00 AM)
Low36 °F (Feb 19, 5:00 AM)39% (Feb 19, 3:00 PM)29.74 "Hg (Feb 15, 5:00 AM)
Average51 °F83%30.20 "Hg
* Reported Feb 14 11:00 PM — Mar 1 11:30 PM, Bilbao, Weather by CustomWeather, © 2015

Note: Actual official high and low records may vary slightly from our data, if they occured in-between our weather recording intervals... More about our weather records

Advertising

Bilbao weather history for previous 24 hours

 ConditionsComfort  
Time TempWeatherWind HumidityBarometerVisibility
11:30 PM
Sun, Mar 1
57 °FPassing clouds.2 mph100%30.12 "HgN/A
11:00 PM57 °FLight rain. Passing clouds.3 mph94%30.12 "HgN/A
10:30 PM57 °FPassing clouds.3 mph94%30.12 "HgN/A
10:00 PM57 °FPassing clouds.No wind94%30.12 "HgN/A
9:30 PM57 °FLight rain. Passing clouds.No wind94%30.15 "HgN/A
9:00 PM57 °FPassing clouds.No wind94%30.12 "HgN/A
8:30 PM57 °FLight rain. Partly cloudy.2 mph94%30.15 "HgN/A
8:00 PM57 °FPartly cloudy.2 mph88%30.15 "HgN/A
7:30 PM57 °FPassing clouds.9 mph88%30.12 "HgN/A
7:00 PM61 °FPassing clouds.10 mph77%30.09 "HgN/A
6:30 PM68 °FPartly sunny.9 mph56%30.07 "HgN/A
6:00 PM68 °FPartly sunny.7 mph56%30.04 "HgN/A
5:30 PM68 °FPartly sunny.7 mph56%30.04 "HgN/A
5:00 PM68 °FPartly sunny.2 mph56%30.07 "HgN/A
4:30 PM68 °FPartly sunny.10 mph56%30.07 "HgN/A
4:00 PM68 °FPartly sunny.10 mph60%30.07 "HgN/A
3:30 PM68 °FPartly sunny.10 mph56%30.07 "HgN/A
3:00 PM68 °FPartly sunny.6 mph56%30.09 "HgN/A
2:30 PM66 °FPartly sunny.9 mph60%30.09 "HgN/A
2:00 PM66 °FPartly sunny.5 mph64%30.12 "HgN/A
1:30 PM66 °FPartly sunny.2 mph64%30.12 "HgN/A
1:00 PM64 °FPartly sunny.5 mph64%30.15 "HgN/A
12:30 PM64 °FPartly sunny.2 mph68%30.15 "HgN/A
12:00 PM63 °FPartly sunny.1 mph73%30.15 "HgN/A
11:30 AM61 °FPartly sunny.1 mph83%30.15 "HgN/A
11:00 AM61 °FPartly sunny.No wind83%30.15 "HgN/A
10:30 AM57 °FPartly sunny.No wind94%30.15 "HgN/A
10:00 AM55 °FPartly sunny.3 mph100%30.15 "HgN/A
9:30 AM55 °FPartly sunny.2 mph94%30.15 "HgN/A
9:00 AM54 °FPartly sunny.2 mph100%30.15 "HgN/A
8:30 AM54 °FPartly sunny.2 mph100%30.15 "HgN/A
8:00 AM54 °FPartly sunny.1 mph100%30.12 "HgN/A
7:30 AM54 °FPartly cloudy.3 mph100%30.12 "Hg4 mi
7:00 AM54 °FPartly cloudy.3 mph100%30.15 "Hg4 mi
6:30 AM54 °FPartly cloudy.1 mph100%30.15 "Hg2 mi
6:00 AM54 °FPartly cloudy.1 mph100%30.12 "HgN/A
5:30 AM54 °FPartly cloudy.1 mph100%30.12 "HgN/A
5:00 AM54 °FPartly cloudy.2 mph100%30.12 "HgN/A
Weather by CustomWeather, © 2015

See weather overviewHow to use our weather pages